Home > Weather > Keflavík > Past weeks

Flag for Iceland Past Weather in Keflavík, Iceland — Yesterday and Last 2 Weeks

Now
57 °F

Sunny.


Feels Like: 54 °F
Forecast: N/A
Wind: 16 mph from North

Location: Keflavikurflugvollur

Current Time: Jul 28, 2016 at 8:22:40 PM

Latest Report: Jul 28, 2016 at 8:00 PM


Visibility: 10 mi

Pressure: 29.95 "Hg

Humidity: 67%

Dew Point: 46 °F

Location of KeflavíkLocation

Past Weather in Keflavík — Graph

°F

Keflavík Temperature Yesterday

Maximum temperature yesterday: 66 °F (at 3:00 PM)
Minimum temperature yesterday: 52 °F (at 2:00 AM)
Average temperature yesterday: 58 °F

High & Low Weather Summary for the Past Weeks

 TemperatureHumidityPressure
High66 °F (Jul 27, 3:00 PM)100% (Jul 15, 1:02 AM)30.01 "Hg (Jul 15, 1:02 AM)
Low48 °F (Jul 14, 2:00 AM)55% (Jul 17, 9:00 PM)29.45 "Hg (Jul 15, 1:30 PM)
Average54 °F87%29.80 "Hg
* Reported Jul 13 7:00 PM — Jul 28 7:00 PM, Keflavík, Weather by CustomWeather, © 2016

Note: Actual official high and low records may vary slightly from our data, if they occured in-between our weather recording intervals... More about our weather records

Advertising

Keflavík Weather History for the Previous 24 Hours

Scroll right to see more
 ConditionsComfort  
Time TempWeatherWind HumidityBarometerVisibility
7:00 PM
Thu, Jul 28
59 °FPassing clouds.17 mph59%29.95 "HgN/A
6:30 PM59 °FSunny.18 mph59%29.95 "Hg10 mi
6:00 PM57 °FSunny.20 mph63%29.92 "Hg10 mi
5:30 PM59 °FSunny.21 mph55%29.92 "Hg10 mi
5:00 PM59 °FSunny.20 mph59%29.92 "Hg10 mi
4:30 PM57 °FSunny.20 mph59%29.95 "Hg10 mi
4:00 PM59 °FSunny.20 mph59%29.95 "Hg10 mi
3:30 PM57 °FPartly sunny.21 mph59%29.92 "HgN/A
3:00 PM57 °FPartly sunny.22 mph67%29.95 "HgN/A
2:30 PM57 °FBroken clouds.22 mph67%29.95 "HgN/A
2:00 PM55 °FBroken clouds.18 mph67%29.95 "HgN/A
1:30 PM55 °FBroken clouds.23 mph72%29.92 "HgN/A
1:00 PM55 °FBroken clouds.21 mph72%29.92 "HgN/A
12:30 PM55 °FBroken clouds.20 mph72%29.92 "HgN/A
12:00 PM57 °FBroken clouds.18 mph72%29.95 "HgN/A
11:30 AM55 °FBroken clouds.18 mph77%29.92 "HgN/A
11:00 AM55 °FBroken clouds.16 mph72%29.92 "HgN/A
10:30 AM55 °FBroken clouds.14 mph77%29.92 "HgN/A
10:00 AM54 °FBroken clouds.15 mph82%29.92 "HgN/A
9:31 AM54 °FBroken clouds.14 mph77%29.92 "HgN/A
9:00 AM55 °FSunny.17 mph77%29.92 "Hg10 mi
8:30 AM54 °FSunny.16 mph82%29.92 "Hg10 mi
8:00 AM54 °FSunny.13 mph82%29.92 "Hg10 mi
7:30 AM54 °FSunny.13 mph82%29.89 "Hg10 mi
7:00 AM52 °FSunny.14 mph88%29.89 "Hg10 mi
6:30 AM52 °FSunny.12 mph88%29.89 "Hg10 mi
6:00 AM52 °FSunny.12 mph88%29.89 "Hg10 mi
5:30 AM52 °FSunny.9 mph94%29.89 "Hg10 mi
5:00 AM52 °FSunny.10 mph88%29.89 "Hg10 mi
4:30 AM52 °FSunny.12 mph88%29.89 "Hg10 mi
3:30 AM52 °FClear.12 mph88%29.89 "Hg10 mi
3:00 AM52 °FClear.14 mph88%29.89 "Hg10 mi
2:31 AM52 °FClear.10 mph88%29.89 "Hg10 mi
2:17 AM52 °FClear.13 mph94%29.92 "Hg10 mi
1:30 AM54 °FClear.10 mph88%29.89 "Hg10 mi
1:00 AM54 °FClear.13 mph88%29.89 "Hg10 mi
12:30 AM54 °FPassing clouds.12 mph94%29.89 "HgN/A
12:00 AM54 °FPassing clouds.12 mph94%29.89 "HgN/A
11:30 PM
Wed, Jul 27
55 °FPassing clouds.10 mph88%29.89 "HgN/A
11:00 PM55 °FPassing clouds.14 mph88%29.89 "HgN/A
10:30 PM57 °FBroken clouds.9 mph82%29.89 "HgN/A
10:00 PM57 °FBroken clouds.13 mph82%29.89 "HgN/A
9:30 PM59 °FBroken clouds.13 mph77%29.89 "HgN/A
9:00 PM59 °FBroken clouds.14 mph82%29.89 "HgN/A
8:30 PM61 °FBroken clouds.13 mph77%29.89 "HgN/A
8:00 PM61 °FBroken clouds.13 mph77%29.89 "HgN/A
Weather by CustomWeather, © 2016

See weather overviewHow to use our weather pages